Tracking 28096 objects as of 28-Sep-2023
HD Live streaming from Space Station
objects crossing your sky now

NOAA 16 DEB

Track NOAA 16 DEB now!
10-day predictions


NORAD ID: 41534
Int'l Code: 2000-055NJ
Perigee: 829.1 km
Apogee: 868.6 km
Inclination: 98.8 °
Period: 101.8 minutes
Semi major axis: 7219 km
RCS: Unknown
Launch date: September 21, 2000
Source: United States (US)
Launch site: AIR FORCE WESTERN TEST RANGE (AFWTR)

Note: This is SATELLITE DEBRIS
Your satellite tracking list
Your tracking list is empty




NASA's NSSDC Master Catalog

Two Line Element Set (TLE):
1 41534U 00055NJ  23271.11792758  .00007069  00000-0  36461-2 0  9996
2 41534  98.8473 337.6950 0027343 175.0700 185.0748 14.15180713381882
Source of the keplerian elements: AFSPC